Regional Weather Roundup
Issued by NWS

Home | Current Version | Previous Version | Text Only | Print | Product List | Glossary Off
Versions: 1 2 3 4 5 6 7 8 9 10 11 12 13 14 15 16 17 18 19 20 21 22 23 24 25 26 27 28 29 30 31 32 33 34 35 36 37 38 39 40 41 42 43 44 45 46 47 48 49 50

000
ASUS43 KDTX 200901
RWRMI
MICHIGAN HOURLY REGIONAL WEATHER ROUNDUP
NATIONAL WEATHER SERVICE DETROIT/PONTIAC MI
500 AM EDT SUN APR 20 2014

NOTE: "FAIR" INDICATES FEW OR NO CLOUDS BELOW 12,000 FEET WITH NO
SIGNIFICANT WEATHER AND/OR OBSTRUCTION TO VISIBILITY.

MIZ047>049-052>055-059>063-066>070-074>076-081>083-201000-
SOUTHEAST LOWER MICHIGAN

CITY           SKY/WX    TMP DP  RH WIND       PRES   REMARKS
ADRIAN         CLEAR     36  29  75 E3        30.32R
ALMA           CLEAR     40  32  72 CALM      30.31F
ANN ARBOR      PTCLDY    34  28  79 CALM      30.32S
BAD AXE        CLEAR     32  28  86 CALM      30.33F
CARO           CLEAR     37  32  84 CALM      30.32F
DETROIT CITY   PTCLDY    40  31  70 CALM      30.33S
DETROIT        MOCLDY    39  29  67 CALM      30.33S
FLINT          CLEAR     38  30  73 CALM      30.33S
GROSSE ILE     PTCLDY    37  32  81 CALM      30.32R
HILLSDALE      PTCLDY    40  30  67 SE8       30.29F WCI  34
HOWELL         PTCLDY    35  28  76 CALM      30.31F

CITY           SKY/WX    TMP DP  RH WIND       PRES   REMARKS
JACKSON        PTCLDY    37  28  70 SE6       30.30F WCI  32
LAMBERTVILLE   PTCLDY    37  32  81 CALM      30.32R
LANSING        PTCLDY    40  28  62 SE6       30.31F
LAPEER         FAIR      32  31  95 CALM      30.33S
MASON          PTCLDY    38  30  74 SE6       30.30F WCI  33
MONROE         PTCLDY    39  30  70 E3        30.31S
MT. CLEMENS    PTCLDY    35  31  85 N3        30.32S
PONTIAC        CLEAR     38  27  64 E5        30.31S WCI  34
PORT HOPE        N/A     34  29  82 CALM      30.32F
PORT HURON     PTCLDY    30  30 100 CALM      30.34S FOG
TRI CITIES     PTCLDY    41  32  70 S5        30.32F
TROY           CLEAR     39  30  71 NE3       30.33S
SAGINAW HB     CLEAR     36  32  87 CALM      30.32S
YPSILANTI      PTCLDY    37  28  70 CALM      30.33R
$$
MIZ043>046-050>051-056>058-064>065-071>073-077>080-201000-
SOUTHWEST LOWER MICHIGAN

CITY           SKY/WX    TMP DP  RH WIND       PRES   REMARKS
BATTLE CREEK   CLEAR     41  28  60 CALM      30.30S
BENTON HARBOR  PTCLDY    42  29  59 SE7       30.26S
BIG RAPIDS     PTCLDY    41  31  67 S3        30.26F
COLDWATER      CLEAR     39  30  71 SE5       30.29S
FREMONT        FAIR      45  26  46 SE7       30.25S
HOLLAND        PTCLDY    45  29  53 SE9       30.26F
GRAND RAPIDS   PTCLDY    43  29  57 SE8       30.28F
IONIA          FAIR      38  30  71 SE5       30.29S WCI  35
KALAMAZOO      CLEAR     40  29  64 CALM      30.29S
LUDINGTON      CLOUDY    49  28  44 SE9G17    30.21F
MARSHALL       PTCLDY    37  29  73 E3        30.29S
MOUNT PLEASANT CLEAR     32  31  97 CALM      30.30S
MUSKEGON       MOCLDY    46  26  45 SE9       30.25F
SOUTH HAVEN    PTCLDY    44  28  55 SE7       30.26F
$$
MIZ016>042-201000-
NORTHERN LOWER MICHIGAN

CITY           SKY/WX    TMP DP  RH WIND       PRES   REMARKS
ALPENA         CLOUDY    35  28  75 SE3       30.30F
BEAVER ISLAND  LGT RAIN  39  35  83 SE6       30.22F
BELLAIRE       CLOUDY    47  26  45 S6        30.23S
CADILLAC       MOCLDY    44  28  54 S9        30.23F
CHARLEVOIX     LGT RAIN  47  31  54 S7        30.26R
FRANKFORT      CLOUDY    50  30  46 SE7       30.19F
GAYLORD        CLOUDY    39  29  67 S12       30.24F WCI  32
GRAYLING       MOCLDY    38  30  74 CALM      30.27S
HARBOR SPRINGS DRIZZLE   42  30  63 CALM      30.24R
HOUGHTON LAKE  PTCLDY    38  31  76 S8        30.27F WCI  32
MANISTEE       CLOUDY    48  28  46 SE7       30.21F
OSCODA         PTCLDY    27  24  88 CALM      30.32S
PELLSTON       LGT RAIN  39  29  67 SE3       30.26R
ROGERS CITY    LGT RAIN  37  30  77 S3        30.30F
TRAVERSE CITY  CLOUDY    49  27  42 S6        30.20F
$$
MIZ007>008-015-201000-
EASTERN UPPER MICHIGAN

CITY           SKY/WX    TMP DP  RH WIND       PRES   REMARKS
KINROSS        CLOUDY    34  34 100 SE14      30.24F WCI  24
MACKINAC ISLAN FLURRIES  34  32  91 SE8       30.25S WCI  27
NEWBERRY       LGT RAIN  34  32  91 S8        30.19S WCI  28
S. S. MARIE    FRZ RAIN  33  28  81 E9G17     30.25F WCI  25
$$
MIZ004>006-011>014-085-201000-
CENTRAL UPPER MICHIGAN

CITY           SKY/WX    TMP DP  RH WIND       PRES   REMARKS
MANISTIQUE     LGT RAIN  36  33  90 SE10      30.18F WCI  28
ESCANABA       CLOUDY    37  34  87 S14       30.13F WCI  29
MENOMINEE      CLOUDY    43  36  75 S3        30.14S
SAWYER-GWINN   LGT RAIN  38  36  92 S12       30.11R WCI  30
$$
MIZ001>003-009>011-084-201000-
WESTERN UPPER MICHIGAN

CITY           SKY/WX    TMP DP  RH WIND       PRES   REMARKS
IRON MOUNTAIN  LGT RAIN  40  38  93 SE6       30.09F FOG
HOUGHTON       PTCLDY    43  33  68 SW3       30.01F
COPPER HARBOR    N/A     39  33  79 SW9       30.01F WCI  33
IRONWOOD       CLOUDY    48  37  66 SW8       29.98S
$$

ABBREVIATIONS USED IN REMARKS
   TC - TEMPERATURE IN CELSIUS
  WCI - WIND CHILL INDEX
   HX - HEAT INDEX
  VSB - VISIBILITY




USA.gov is the U.S. government's official web portal to all federal, state and local government web resources and services.